This demonstration page uses our WeatherBlox Daily Observations layout. Learn more.

Hourly Observations for June 16, 2015

Temp ( °F °C ) Dew Point ( °F °C ) Humidity (%) Winds ( mph kmh ) Pressure ( in mb ) Visibility ( mi km ) Precip ( " mm )
12:15 am 00:15 Clear 59 15 57 14 94 94 ENE 6 9 30.15 1021 10 16.09344 0 0
12:35 am 00:35 Clear 59 15 57 14 94 94 NE 5 7 30.15 1021 10 16.09344 0 0
12:55 am 00:55 Clear 59 15 55 13 88 88 NE 6 9 30.15 1021 10 16.09344 0 0
1:15 am 01:15 Clear 59 15 55 13 88 88 ENE 7 11 30.15 1021 10 16.09344 0 0
1:35 am 01:35 Clear 59 15 55 13 88 88 ENE 6 9 30.15 1021 10 16.09344 0 0
1:55 am 01:55 Clear 59 15 55 13 88 88 E 7 11 30.15 1021 10 16.09344 0 0
2:15 am 02:15 Clear 59 15 55 13 88 88 E 7 11 30.15 1021 10 16.09344 0 0
2:35 am 02:35 Clear 59 15 54 12 82 82 E 6 9 30.15 1021 10 16.09344 0 0
2:55 am 02:55 Clear 57 14 54 12 88 88 ENE 5 7 30.18 1022 10 16.09344 0 0
3:15 am 03:15 Clear 57 14 54 12 88 88 Calm 30.18 1022 10 16.09344 0 0
3:35 am 03:35 Clear 57 14 54 12 88 88 Calm 30.18 1022 10 16.09344 0 0
3:55 am 03:55 Clear 57 14 54 12 88 88 Calm 30.18 1022 10 16.09344 0 0
4:15 am 04:15 Clear 55 13 52 11 88 88 E 6 9 30.18 1022 10 16.09344 0 0
4:35 am 04:35 Clear 57 14 54 12 88 88 ESE 6 9 30.18 1022 10 16.09344 0 0
4:55 am 04:55 Clear 55 13 52 11 88 88 ESE 6 9 30.18 1022 10 16.09344 0 0
5:15 am 05:15 Clear 55 13 52 11 88 88 Calm 30.18 1022 10 16.09344 0 0
5:35 am 05:35 Clear 55 13 52 11 88 88 SSE 5 7 30.15 1021 10 16.09344 0 0
5:55 am 05:55 Clear 55 13 52 11 88 88 SE 5 7 30.15 1021 10 16.09344 0 0
6:15 am 06:15 Sunny 55 13 52 11 88 88 SE 6 9 30.15 1021 10 16.09344 0 0
6:35 am 06:35 Sunny 55 13 52 11 88 88 S 5 7 30.15 1021 10 16.09344 0 0
6:55 am 06:55 Sunny 57 14 54 12 88 88 Calm 30.12 1020 10 16.09344 0 0
7:15 am 07:15 Sunny 57 14 54 12 88 88 Calm 30.12 1020 10 16.09344 0 0
7:35 am 07:35 Sunny 59 15 55 13 88 88 SSE 5 7 30.12 1020 10 16.09344 0 0
7:55 am 07:55 Sunny 61 16 55 13 83 83 SE 6 9 30.12 1020 10 16.09344 0 0
8:15 am 08:15 Sunny 63 17 55 13 77 77 SE 10 17 30.12 1020 10 16.09344 0 0
8:35 am 08:35 Sunny 63 17 55 13 77 77 SSE 13 20 30.12 1020 10 16.09344 0 0
8:55 am 08:55 Sunny 64 18 55 13 73 73 SE 13 20 30.09 1019 10 16.09344 0 0
9:15 am 09:15 Sunny 66 19 55 13 68 68 SE 12 19 30.09 1019 10 16.09344 0 0
9:35 am 09:35 Sunny 68 20 57 14 69 69 SE 16 26 30.09 1019 10 16.09344 0 0
9:55 am 09:55 Sunny 68 20 55 13 64 64 SE 15 24 30.09 1019 10 16.09344 0 0
10:15 am 10:15 Sunny 66 19 57 14 73 73 SSE 12 19 30.09 1019 10 16.09344 0 0
10:35 am 10:35 Sunny 70 21 57 14 64 64 SSE 13 20 30.03 1017 10 16.09344 0 0
10:55 am 10:55 Sunny 70 21 57 14 64 64 SSE 14 22 30.03 1017 10 16.09344 0 0
11:15 am 11:15 Partly Cloudy 70 21 57 14 64 64 S 10 17 30.03 1017 10 16.09344 0 0
11:35 am 11:35 Partly Cloudy 70 21 57 14 64 64 S 10 17 30.06 1018 10 16.09344 0 0
11:55 am 11:55 Partly Cloudy 72 22 59 15 65 65 S 8 13 30.06 1018 10 16.09344 0 0
12:15 pm 12:15 Partly Cloudy 73 23 59 15 61 61 S 10 17 30.06 1018 10 16.09344 0 0
12:35 pm 12:35 Partly Cloudy 73 23 59 15 61 61 S 12 19 30.03 1017 10 16.09344 0 0
12:55 pm 12:55 Sunny 73 23 59 15 61 61 S 10 17 30.03 1017 10 16.09344 0 0
1:15 pm 13:15 Sunny 73 23 57 14 57 57 SSE 13 20 30.03 1017 10 16.09344 0 0
1:35 pm 13:35 Sunny 75 24 57 14 54 54 S 10 17 30.03 1017 10 16.09344 0 0
1:55 pm 13:55 Sunny 75 24 57 14 54 54 S 13 20 30.03 1017 10 16.09344 0 0
2:15 pm 14:15 Sunny 77 25 57 14 51 51 S 15 24 29.97 1015 10 16.09344 0 0
2:35 pm 14:35 Sunny 77 25 57 14 51 51 SSE 13 20 29.97 1015 10 16.09344 0 0
2:55 pm 14:55 Sunny 77 25 57 14 51 51 S 15 24 29.94 1014 10 16.09344 0 0
3:15 pm 15:15 Sunny 77 25 57 14 51 51 S 12 19 29.94 1014 10 16.09344 0 0
3:35 pm 15:35 Sunny 77 25 57 14 51 51 S 15 24 29.94 1014 10 16.09344 0 0
3:55 pm 15:55 Sunny 77 25 57 14 51 51 S 13 20 29.94 1014 10 16.09344 0 0
4:15 pm 16:15 Partly Cloudy 77 25 57 14 51 51 S 13 20 29.94 1014 10 16.09344 0 0
4:35 pm 16:35 Sunny 79 26 59 15 51 51 SSW 12 19 29.91 1013 10 16.09344 0 0
4:55 pm 16:55 Sunny 79 26 55 13 45 45 S 13 20 29.91 1013 10 16.09344 0 0
5:15 pm 17:15 Sunny 79 26 57 14 48 48 SSE 13 20 29.91 1013 10 16.09344 0 0
5:35 pm 17:35 Sunny 79 26 57 14 48 48 SSE 12 19 29.88 1012 10 16.09344 0 0
5:55 pm 17:55 Sunny 79 26 57 14 48 48 S 10 17 29.88 1012 10 16.09344 0 0
6:15 pm 18:15 Sunny 79 26 57 14 48 48 S 9 15 29.88 1012 10 16.09344 0 0
6:35 pm 18:35 Sunny 79 26 57 14 48 48 S 13 20 29.88 1012 10 16.09344 0 0
6:55 pm 18:55 Sunny 79 26 57 14 48 48 S 12 19 29.88 1012 10 16.09344 0 0
7:15 pm 19:15 Sunny 79 26 57 14 48 48 SSE 14 22 29.88 1012 10 16.09344 0 0
7:35 pm 19:35 Sunny 79 26 57 14 48 48 SSE 14 22 29.85 1011 10 16.09344 0 0
7:55 pm 19:55 Sunny 77 25 57 14 51 51 SSE 10 17 29.85 1011 10 16.09344 0 0
8:15 pm 20:15 Sunny 77 25 59 15 54 54 SSE 9 15 29.85 1011 10 16.09344 0 0
8:35 pm 20:35 Sunny 75 24 59 15 57 57 SSE 9 15 29.85 1011 10 16.09344 0 0
8:55 pm 20:55 Sunny 72 22 61 16 69 69 SSE 7 11 29.88 1012 10 16.09344 0 0
9:15 pm 21:15 Clear 72 22 61 16 69 69 SE 8 13 29.91 1013 10 16.09344 0 0
9:35 pm 21:35 Clear 70 21 61 16 73 73 SE 8 13 29.91 1013 10 16.09344 0 0
9:55 pm 21:55 Clear 70 21 61 16 73 73 SE 9 15 29.91 1013 7 11.265408 0 0
10:15 pm 22:15 Clear 70 21 61 16 73 73 SE 8 13 29.91 1013 7 11.265408 0 0
10:35 pm 22:35 Clear 70 21 61 16 73 73 SE 9 15 29.91 1013 7 11.265408 0 0
10:55 pm 22:55 Hazy 70 21 61 16 73 73 SSE 13 20 29.91 1013 5 8.04672 0 0

Powered by AerisWeather